Temperature
6 7 7 6 6 6 6 6 6 6 6 6 6 6 6 6 5 5 5 5 5 5 4 4 4 4 4 4 4 4 4 4 4 4 4 4 4 4 4 4 4 4 4
6 6 6 6 6 6 6 6 6 6 6 6 5 5 5 5 5 4 4 4 4 4 4 4 4 4 4 4 4 4 4 4 3 3 3 3 4 4 4 4 4 4 4
5 5 5 5 5 5 5 5 5 5 5 5 5 5 5 4 4 4 4 3 3 3 3 3 3 3 3 3 3 3 3 3 3 3 3 3 3 3 3 3 3 3 3
5 5 5 5 5 5 5 5 5 5 5 5 5 4 4 4 4 4 3 3 3 3 3 3 3 3 3 3 3 3 3 3 3 3 2 2 3 3 3 3 3 3 3
4 4 4 4 4 4 4 4 4 4 4 4 4 4 4 4 3 3 3 3 3 3 3 3 3 3 3 3 3 3 2 2 2 2 2 2 2 2 2 2 2 2 3
4 4 4 4 4 4 4 4 4 4 4 3 3 3 3 3 3 3 3 3 3 2 2 3 2 2 2 2 2 2 2 2 2 2 1 1 1 1 2 2 2 2 2
3 3 3 3 3 3 3 3 3 3 3 3 3 3 3 3 2 2 2 2 2 2 2 2 2 2 2 2 2 2 2 2 2 1 1 1 1 1 1 1 1 1 2
3 2 2 2 2 2 2 2 2 2 2 2 2 2 2 2 2 2 2 2 2 2 1 1 1 1 1 1 1 1 1 1 1 1 1 1 1 1 1 1 1 1 1
2 2 1 2 2 2 2 1 1 1 1 1 1 1 1 2 1 1 1 1 1 1 1 1 1 1 1 1 1 1 1 1 1 1 1 1 1 1 1 1 1 1 1
1 1 1 1 1 1 1 1 1 1 1 1 1 1 1 1 1 1 1 0 0 0 0 0 0 0 0 0 1 1 1 1 1 0 0 0 1 1 1 1 1 1 0
0 0 0 0 0 0 0 0 0 0 0 0 0 0 0 0 0 0 0 -0 -0 -0 -0 -0 -0 -0 -0 0 0 0 0 0 0 0 0 0 0 0 1 1 0 0 0
-0 -0 0 0 0 0 -0 -0 -0 -0 -0 -0 -0 -0 -0 -1 -1 -1 -1 -1 -1 -1 -1 -1 -1 -1 -0 -0 -0 -0 -0 0 0 -0 -0 -0 -0 -0 0 0 0 0 0
-1 -0 -0 -0 -0 -0 -0 -1 -1 -1 -1 -1 -1 -1 -1 -1 -1 -1 -1 -1 -1 -1 -1 -1 -1 -1 -1 -1 -1 -0 -0 -0 -0 -1 -1 -1 -1 -1 -0 -0 -0 -0 -0
-1 -1 -1 -1 -1 -1 -1 -1 -1 -1 -2 -2 -2 -2 -2 -2 -2 -2 -2 -2 -2 -1 -1 -1 -1 -1 -1 -1 -1 -1 -1 -1 -1 -1 -1 -1 -1 -1 -1 -1 -1 -0 -1
-2 -2 -2 -2 -2 -2 -2 -2 -2 -2 -2 -2 -2 -2 -3 -3 -3 -3 -2 -2 -2 -2 -2 -1 -1 -1 -1 -1 -1 -1 -1 -1 -1 -1 -1 -1 -1 -1 -1 -1 -1 -1 -1
-2 -2 -2 -2 -2 -2 -2 -3 -3 -3 -3 -3 -3 -3 -3 -3 -3 -3 -2 -2 -2 -2 -2 -2 -2 -2 -2 -2 -2 -2 -2 -2 -2 -2 -2 -1 -2 -2 -2 -2 -2 -2 -2
-3 -3 -3 -3 -3 -3 -3 -3 -3 -3 -3 -3 -3 -3 -3 -3 -3 -3 -2 -2 -2 -2 -2 -2 -2 -2 -2 -2 -2 -2 -2 -2 -2 -2 -2 -2 -2 -2 -2 -2 -2 -2 -2
-3 -3 -3 -4 -4 -4 -4 -4 -4 -4 -4 -3 -3 -3 -3 -3 -3 -3 -3 -2 -2 -2 -2 -2 -2 -2 -2 -2 -2 -2 -2 -2 -2 -2 -2 -2 -2 -2 -2 -2 -2 -2 -2
-4 -4 -4 -4 -4 -4 -4 -4 -4 -4 -4 -4 -4 -4 -4 -3 -3 -3 -3 -3 -3 -3 -3 -3 -3 -3 -3 -3 -3 -2 -2 -2 -2 -2 -2 -2 -2 -2 -2 -3 -3 -3 -3
-4 -4 -5 -5 -5 -5 -5 -5 -5 -5 -5 -4 -4 -4 -4 -4 -4 -4 -3 -3 -3 -3 -3 -3 -3 -3 -3 -3 -3 -2 -2 -2 -2 -2 -2 -2 -3 -3 -3 -3 -3 -3 -3
-5 -5 -5 -5 -5 -5 -5 -5 -5 -5 -5 -5 -5 -5 -5 -4 -4 -4 -4 -4 -4 -4 -4 -4 -3 -3 -3 -3 -3 -3 -3 -2 -2 -2 -2 -3 -3 -3 -3 -3 -4 -4 -4
-5 -5 -5 -5 -5 -5 -5 -5 -5 -5 -5 -5 -5 -5 -5 -5 -5 -5 -5 -4 -4 -4 -4 -4 -4 -3 -3 -3 -3 -3 -3 -3 -3 -3 -3 -3 -3 -3 -3 -3 -4 -4 -4
-6 -6 -6 -6 -6 -6 -6 -6 -6 -6 -6 -6 -5 -5 -5 -5 -5 -5 -5 -5 -4 -4 -4 -4 -4 -4 -3 -3 -3 -3 -3 -3 -3 -3 -3 -3 -3 -3 -3 -4 -4 -4 -4
-6 -6 -6 -6 -6 -6 -6 -6 -6 -6 -6 -6 -6 -6 -5 -5 -5 -5 -5 -5 -5 -4 -4 -4 -4 -4 -4 -4 -3 -3 -3 -3 -3 -3 -3 -3 -3 -3 -4 -4 -4 -4 -4
-6 -6 -6 -7 -7 -7 -7 -6 -6 -6 -6 -6 -6 -6 -6 -5 -5 -5 -5 -5 -5 -5 -4 -4 -4 -4 -4 -4 -3 -3 -3 -3 -3 -3 -3 -3 -3 -4 -4 -4 -4 -4 -4
-7 -7 -7 -7 -7 -7 -7 -7 -6 -6 -6 -6 -6 -6 -6 -6 -5 -5 -5 -5 -5 -5 -5 -4 -4 -4 -4 -4 -3 -3 -3 -3 -3 -3 -3 -3 -3 -4 -4 -4 -4 -4 -4
Wind_Speed
0 0 0 1 1 1 2 2 3 3 3 3 3 3 4 4 4 4 5 5 6 6 6 7 8 7 6 5 5 5 6 6 9 9 5 5 5 6 7 7 8 7 8
1 1 1 1 0 1 2 2 2 2 2 3 3 3 4 4 4 4 5 5 6 7 7 7 7 6 7 6 5 6 6 6 7 10 8 5 5 5 6 6 7 8 7
1 1 1 1 1 1 1 2 2 1 2 2 2 2 3 3 4 4 5 6 6 6 6 7 7 7 7 6 6 6 6 7 6 7 8 6 5 4 5 6 7 6 7
1 1 1 1 1 1 1 2 1 1 2 2 2 3 3 4 4 5 5 5 5 6 6 6 7 7 7 7 7 7 6 6 6 7 7 6 5 4 4 5 6 5 6
2 1 1 2 1 1 2 2 1 1 3 2 2 3 3 4 4 5 5 5 5 5 6 6 7 7 9 8 7 6 6 6 5 6 6 6 5 4 5 4 6 6 6
2 2 2 2 2 2 2 2 2 2 2 2 3 3 4 5 7 8 7 5 5 5 6 6 6 7 9 10 11 10 8 7 6 6 6 6 7 5 4 5 5 5 6
2 2 2 2 2 2 2 2 2 3 3 3 3 3 4 5 8 9 9 6 5 5 5 5 6 7 8 7 8 8 8 10 10 7 7 7 7 5 5 6 6 6 7
3 3 3 2 3 3 2 2 3 3 3 3 4 4 3 5 8 9 9 6 4 4 5 6 6 6 7 6 5 5 5 6 7 6 6 6 5 5 5 6 6 5 6
3 3 3 2 2 2 2 3 3 3 3 3 3 3 3 4 7 8 8 4 3 5 5 5 6 6 8 8 6 5 5 5 5 6 6 6 8 8 6 3 3 3 4
4 3 3 3 2 2 2 3 3 3 3 3 4 4 4 4 6 7 7 3 4 4 4 5 7 7 8 7 4 4 4 4 4 4 5 6 6 6 5 3 3 3 3
4 4 4 3 2 3 3 3 2 2 3 3 4 4 3 3 5 7 7 4 4 4 4 4 4 8 8 7 5 3 4 4 3 3 3 4 4 3 3 2 2 1 2
4 4 4 4 3 3 2 3 3 2 3 3 3 4 3 3 4 5 7 7 6 4 4 4 4 7 8 7 5 5 5 4 2 2 2 3 3 3 2 2 3 2 2
5 5 4 4 3 3 2 2 3 2 2 3 3 3 4 4 4 6 7 7 7 4 3 5 6 8 7 5 5 6 4 2 1 2 2 2 2 2 2 2 3 3 4
4 5 4 4 4 4 3 2 2 2 2 3 3 4 4 4 4 4 4 4 5 5 4 5 6 6 5 5 5 4 2 2 1 1 2 2 1 2 2 2 1 2 2
4 4 4 4 4 4 3 3 3 2 2 3 3 3 4 4 5 6 5 4 4 4 4 3 3 3 3 3 3 2 2 2 2 2 1 2 2 2 2 2 2 1 2
4 4 4 4 4 3 3 4 6 5 6 6 6 5 5 6 8 8 8 7 7 6 4 3 2 2 2 2 2 2 2 2 2 2 2 1 1 2 2 2 2 2 2
4 4 3 3 3 3 3 3 4 6 7 6 6 6 6 7 8 7 7 6 5 4 2 2 2 2 2 2 2 2 2 2 2 2 1 1 1 2 2 2 2 2 2
4 5 4 3 3 3 3 3 3 4 4 4 5 6 7 7 7 7 6 4 3 3 1 1 2 2 1 1 1 2 2 2 2 2 2 2 2 1 2 2 2 2 2
4 3 3 3 3 3 3 3 3 3 3 4 4 5 6 6 7 7 6 3 2 2 2 2 2 2 1 1 1 1 1 1 1 1 1 2 1 1 2 2 2 3 2
3 5 4 3 3 3 3 3 3 3 3 3 4 4 4 4 3 4 3 2 2 2 2 2 2 2 2 1 1 1 1 1 1 1 1 1 1 1 1 1 1 2 2
2 3 5 4 3 3 2 3 3 3 3 3 3 3 4 3 2 3 3 2 2 2 2 2 2 2 2 1 1 1 1 1 1 1 1 1 1 1 1 1 1 1 1
2 2 2 2 2 2 3 2 2 2 2 2 3 3 5 3 2 2 2 2 2 2 2 2 2 2 1 1 1 1 0 0 1 1 1 1 1 1 1 1 1 2 2
1 2 2 2 2 3 3 2 2 2 2 2 2 3 3 2 2 2 2 3 2 2 3 2 2 2 2 2 1 0 0 1 1 0 1 1 1 1 1 2 2 2 2
2 2 2 2 2 2 2 2 2 2 2 2 2 2 2 2 2 3 3 2 3 2 2 2 2 2 3 2 2 1 1 0 0 1 1 1 1 1 1 2 2 2 2
2 2 2 2 2 2 2 2 2 2 2 2 2 2 2 2 2 3 3 3 3 3 3 3 3 3 3 3 2 1 1 2 2 1 1 1 2 2 2 2 2 2 2
2 2 2 2 2 2 1 1 2 2 2 2 2 2 2 2 2 3 3 3 3 3 3 3 4 4 3 3 2 2 2 2 2 3 2 2 2 2 2 2 3 2 2
Wind_Direction
55 59 24 283 257 251 244 247 266 258 245 244 251 253 250 253 254 257 262 263 262 266 263 261 263 262 262 261 258 259 263 260 270 283 283 283 277 282 290 284 283 279 276
60 68 58 6 341 282 269 270 277 270 267 263 262 259 261 266 262 261 267 269 267 270 271 270 269 270 265 264 261 259 262 260 263 278 288 288 281 281 286 283 288 285 280
50 60 38 350 329 284 277 305 298 297 297 290 276 265 269 273 273 269 266 269 270 274 275 274 272 269 268 265 264 262 262 266 260 269 279 280 283 288 291 289 287 288 290
29 26 7 323 307 295 295 292 287 299 289 278 273 267 269 275 278 275 273 274 275 275 276 276 274 268 267 265 266 263 262 264 260 263 272 279 281 283 283 286 292 292 292
12 356 336 330 332 327 306 293 295 295 289 284 281 278 276 277 278 282 281 280 277 277 278 276 276 275 274 273 271 268 264 264 264 265 269 279 279 284 281 283 288 298 294
352 336 338 342 337 322 316 324 322 310 305 299 289 285 285 286 292 297 297 286 279 278 281 281 281 280 277 278 276 276 271 266 264 265 270 270 271 276 284 285 289 300 297
348 344 346 351 349 338 334 342 327 315 312 308 303 299 291 288 296 299 302 295 284 286 286 285 288 288 288 280 283 283 280 273 267 266 267 267 272 271 274 280 283 286 287
3 353 351 359 347 339 339 326 313 308 305 307 308 305 296 298 308 308 307 304 296 290 287 286 285 286 284 284 287 289 287 282 270 266 265 271 274 268 258 266 275 289 292
4 351 343 339 325 321 317 309 310 313 316 316 313 317 311 310 317 318 316 307 301 297 295 296 292 288 291 296 292 287 292 296 300 289 289 295 298 295 288 280 280 288 295
347 335 329 325 316 307 299 299 303 308 310 313 315 315 311 311 319 325 321 311 306 305 305 304 305 304 305 308 300 289 288 293 308 314 314 316 311 309 305 269 257 265 283
341 333 329 324 317 312 309 307 308 315 318 315 312 316 321 323 326 328 328 322 308 304 304 309 314 323 323 321 314 296 284 290 289 296 308 308 309 310 313 318 305 243 261
343 333 328 327 321 322 320 317 318 317 317 317 325 328 330 330 331 333 333 326 319 309 305 307 314 325 327 329 327 319 315 314 304 307 311 311 312 318 326 344 360 1 329
340 333 333 336 335 327 318 317 323 324 319 319 325 322 323 329 331 331 327 326 325 318 310 317 321 326 328 332 339 334 334 338 334 331 321 311 312 317 336 359 3 6 9
335 333 336 336 336 337 336 334 331 330 324 316 313 311 313 317 319 320 317 319 324 321 319 324 328 332 337 332 335 342 354 352 340 322 314 317 339 360 6 357 350 358 24
329 326 329 331 332 334 340 343 331 325 305 306 305 303 305 305 309 316 314 313 310 303 311 316 322 330 344 345 346 349 350 347 344 331 334 352 5 11 1 359 8 14 29
323 325 325 324 324 326 334 340 347 335 332 326 317 307 305 300 306 312 313 312 310 305 314 317 317 328 336 337 340 347 350 347 342 347 354 6 11 10 5 11 25 40 47
312 312 312 311 310 315 318 318 322 334 335 326 321 318 313 312 316 321 323 322 318 318 323 326 322 320 321 330 338 341 339 338 345 351 2 4 9 18 21 22 31 42 43
307 305 303 297 299 301 303 305 308 312 319 325 326 328 330 331 334 334 331 336 350 3 358 333 320 318 317 324 329 334 335 342 354 357 15 20 24 33 38 33 37 45 41
303 300 300 304 302 298 296 297 299 302 305 312 323 330 334 340 349 355 357 9 5 352 342 335 329 320 312 313 315 325 343 2 5 14 24 24 28 43 50 47 51 44 46
298 299 306 305 305 305 302 299 298 299 305 312 317 320 336 351 357 356 2 5 358 345 338 330 330 326 321 319 327 343 6 18 16 26 24 22 27 44 57 53 58 66 60
297 303 307 304 299 300 302 300 298 299 305 311 316 330 343 352 354 355 354 352 343 331 327 323 317 316 315 325 344 359 7 22 14 14 18 36 47 45 46 56 62 69 67
297 300 302 301 302 305 308 304 300 301 311 318 326 335 339 349 2 2 352 345 338 331 324 317 316 319 321 332 345 346 348 3 359 24 34 50 74 74 63 66 67 67 72
307 303 308 310 311 310 317 320 325 333 338 335 333 340 350 1 2 357 350 345 346 346 349 346 336 336 347 355 1 327 234 260 258 182 137 107 88 92 89 88 86 86 74
343 330 324 320 316 317 324 333 339 335 333 332 334 340 349 355 359 356 351 350 350 352 354 353 353 354 352 352 14 25 27 335 5 147 148 141 130 98 96 98 97 102 96
348 332 327 326 321 326 338 344 343 344 345 339 343 350 356 359 359 356 354 353 352 357 358 354 360 1 360 355 9 23 43 55 80 90 109 134 120 106 106 104 104 95 87
358 349 344 342 342 347 350 349 349 349 351 352 1 4 3 3 2 358 357 357 357 1 1 1 5 6 4 10 20 32 51 62 87 93 93 116 117 115 113 107 106 99 97
Height
1446 1446 1446 1447 1447 1447 1447 1448 1448 1448 1448 1448 1448 1448 1448 1448 1447 1447 1446 1446 1445 1444 1444 1443 1442 1441 1440 1440 1439 1438 1437 1435 1430 1425 1426 1425 1424 1422 1421 1420 1419 1417 1414
1444 1444 1444 1444 1444 1444 1444 1444 1445 1444 1444 1444 1444 1444 1443 1443 1442 1442 1441 1441 1440 1439 1438 1437 1436 1436 1434 1433 1433 1431 1430 1429 1426 1422 1420 1419 1418 1417 1416 1414 1412 1411 1409
1441 1441 1441 1441 1441 1441 1441 1441 1441 1440 1440 1440 1439 1439 1438 1438 1437 1437 1436 1435 1434 1434 1433 1431 1430 1430 1428 1427 1426 1425 1424 1422 1421 1418 1414 1413 1412 1411 1410 1408 1407 1405 1403
1439 1439 1438 1438 1438 1437 1437 1437 1436 1436 1435 1435 1434 1434 1434 1433 1432 1432 1431 1430 1429 1428 1427 1426 1425 1424 1423 1422 1420 1419 1418 1416 1415 1413 1410 1408 1407 1406 1405 1403 1401 1399 1397
1437 1436 1436 1435 1435 1435 1434 1433 1433 1432 1432 1431 1430 1430 1429 1429 1428 1427 1426 1425 1424 1422 1421 1421 1420 1419 1417 1417 1415 1413 1412 1411 1409 1407 1405 1403 1402 1401 1400 1398 1396 1394 1392
1435 1434 1434 1433 1432 1432 1431 1430 1430 1429 1428 1428 1427 1426 1425 1424 1424 1423 1422 1420 1419 1417 1416 1415 1414 1413 1412 1411 1410 1408 1408 1406 1404 1403 1401 1399 1397 1396 1395 1394 1392 1390 1386
1432 1432 1431 1430 1430 1429 1428 1427 1427 1426 1425 1424 1423 1422 1421 1420 1420 1419 1418 1416 1414 1413 1411 1410 1408 1407 1406 1406 1404 1403 1402 1401 1400 1399 1397 1395 1393 1392 1391 1389 1388 1386 1383
1430 1430 1429 1428 1427 1426 1426 1425 1424 1423 1422 1421 1419 1418 1417 1416 1416 1415 1413 1412 1410 1408 1407 1406 1404 1402 1401 1401 1399 1397 1395 1395 1394 1394 1393 1391 1390 1388 1387 1386 1384 1382 1379
1428 1427 1427 1426 1425 1424 1423 1422 1421 1420 1419 1418 1416 1415 1414 1412 1412 1411 1409 1408 1406 1404 1403 1401 1400 1398 1397 1396 1394 1392 1391 1390 1389 1389 1388 1387 1386 1384 1383 1382 1380 1378 1375
1426 1425 1424 1423 1422 1421 1420 1420 1419 1418 1416 1415 1413 1412 1411 1409 1408 1407 1406 1404 1402 1400 1398 1397 1396 1394 1393 1392 1390 1388 1386 1385 1385 1384 1383 1382 1381 1380 1379 1378 1377 1375 1373
1424 1423 1422 1421 1420 1419 1418 1417 1416 1415 1413 1412 1410 1409 1407 1406 1404 1403 1402 1401 1399 1397 1395 1393 1392 1391 1389 1387 1386 1384 1383 1383 1382 1381 1379 1378 1377 1376 1375 1375 1374 1373 1371
1422 1421 1420 1419 1418 1417 1416 1415 1414 1412 1410 1409 1407 1405 1404 1403 1402 1400 1399 1398 1396 1394 1392 1390 1389 1388 1386 1385 1383 1381 1380 1380 1379 1378 1376 1375 1374 1373 1372 1372 1371 1370 1370
1420 1418 1417 1416 1415 1414 1413 1412 1411 1410 1408 1406 1404 1402 1401 1400 1398 1397 1396 1395 1393 1391 1390 1388 1387 1385 1384 1382 1381 1379 1378 1377 1376 1375 1373 1372 1372 1371 1370 1369 1369 1368 1368
1417 1416 1415 1414 1412 1412 1411 1410 1409 1407 1405 1404 1402 1400 1398 1397 1395 1394 1393 1391 1390 1388 1387 1386 1384 1383 1381 1380 1379 1377 1376 1375 1374 1373 1372 1371 1370 1369 1368 1368 1367 1366 1366
1415 1414 1413 1412 1410 1409 1408 1407 1406 1405 1404 1402 1400 1398 1396 1393 1393 1392 1390 1388 1387 1386 1385 1383 1382 1380 1379 1378 1377 1376 1375 1374 1373 1372 1371 1370 1369 1368 1367 1367 1366 1366 1365
1413 1412 1411 1409 1408 1406 1405 1404 1403 1402 1400 1399 1397 1396 1394 1392 1390 1389 1387 1385 1384 1383 1382 1381 1379 1378 1377 1376 1376 1374 1374 1373 1372 1371 1370 1369 1368 1368 1367 1367 1366 1365 1364
1411 1409 1408 1407 1405 1404 1402 1401 1399 1398 1397 1396 1394 1392 1391 1389 1387 1386 1384 1383 1382 1381 1380 1378 1378 1377 1376 1375 1375 1374 1373 1372 1371 1370 1369 1368 1368 1367 1367 1366 1366 1365 1365
1408 1407 1406 1404 1403 1401 1400 1399 1397 1395 1393 1391 1391 1389 1388 1386 1385 1383 1382 1381 1379 1379 1378 1377 1376 1376 1375 1375 1374 1373 1372 1372 1371 1370 1369 1368 1367 1367 1366 1366 1366 1365 1365
1405 1404 1402 1401 1400 1399 1398 1396 1395 1393 1391 1389 1387 1386 1385 1384 1382 1381 1380 1379 1377 1377 1376 1376 1375 1375 1374 1374 1373 1372 1371 1371 1370 1369 1368 1368 1367 1367 1366 1366 1366 1366 1365
1401 1401 1400 1399 1397 1396 1395 1394 1392 1391 1389 1387 1386 1385 1383 1382 1380 1379 1378 1377 1376 1376 1375 1374 1374 1373 1373 1372 1372 1371 1370 1370 1369 1368 1368 1368 1367 1367 1367 1367 1366 1366 1366
1398 1397 1397 1396 1394 1393 1392 1391 1389 1388 1387 1386 1384 1384 1383 1381 1379 1378 1377 1376 1375 1374 1373 1373 1372 1372 1371 1371 1370 1370 1369 1369 1368 1368 1368 1368 1367 1367 1367 1367 1367 1367 1367
1395 1395 1394 1393 1391 1390 1389 1388 1387 1386 1385 1384 1383 1382 1381 1380 1378 1377 1376 1374 1374 1373 1373 1372 1371 1370 1370 1370 1369 1369 1368 1368 1368 1368 1368 1368 1368 1367 1368 1368 1367 1368 1368
1393 1392 1391 1390 1389 1388 1387 1386 1385 1384 1383 1382 1381 1380 1379 1378 1377 1376 1375 1374 1373 1372 1372 1371 1370 1369 1369 1369 1368 1368 1368 1368 1368 1368 1368 1368 1368 1368 1368 1368 1368 1368 1368
1391 1390 1389 1388 1387 1386 1385 1384 1383 1382 1382 1381 1380 1379 1378 1377 1376 1375 1374 1373 1372 1372 1371 1370 1369 1369 1368 1368 1368 1368 1367 1367 1368 1368 1368 1368 1368 1368 1369 1369 1369 1369 1369
1388 1388 1387 1386 1385 1384 1383 1383 1382 1381 1381 1380 1379 1378 1377 1376 1375 1375 1374 1373 1372 1371 1370 1369 1369 1368 1368 1367 1367 1367 1367 1367 1367 1368 1368 1368 1369 1369 1369 1369 1370 1370 1370
1387 1386 1386 1385 1384 1383 1382 1382 1381 1380 1380 1379 1379 1378 1377 1376 1375 1374 1373 1373 1371 1370 1369 1369 1368 1368 1367 1367 1367 1367 1367 1367 1367 1368 1368 1369 1369 1369 1370 1370 1371 1371 1371